ソーホー彗星

P/2014 K3 ( SOHO )

English version
Home page
Updated on September 15, 2019

---------------------------------------------------------------------

・ プロフィール

・ 軌道要素

Epoch 2014 May 23.0 TT = JDT 2456800.5
T 2014 May 17.88582 TT                                  MPC
q   0.0671057            (2000.0)            P               Q
n   0.18272247     Peri.  144.30899     -0.10984942     -0.94530154
a   3.0756818      Node   309.84545     +0.79359461     +0.10264158
e   0.9781819      Incl.   23.58102     +0.59844857     -0.30962833
P   5.39
From 67 observations 2008 Dec. 21-2014 May 17.

・ 光度変化

        m1 = 20 + 5 logΔ + 10 log r

---------------------------------------------------------------------

軌道要素はM.P.E.C. 2014-K37に掲載されたものです。
光度グラフはComet for Windowsで作成したものです。

---------------------------------------------------------------------

Copyright(C) Seiichi Yoshida (comet@aerith.net). All rights reserved.